Left ArrowRight Arrow

Hourly Observations for May 25, 2024

Temp ( °F °C ) Dew Point ( °F °C ) Humidity (%) Winds ( mph kmh ) Pressure ( in mb ) Visibility ( mi km ) Precip ( " mm )
12:53 am 00:53 Cloudy 77 25 68 20 74 74 SSW 6 9 30.06 1018 10 16 0.00 0.00
1:53 am 01:53 Cloudy 75 23.9 70 21.1 84 84 SW 15 24 30.04 1017 10 16 0.00 0.00
2:53 am 02:53 Cloudy 74 23.3 69 20.6 85 85 SSE 8 13 30.03 1017 10 16 0.00 0.00
3:16 am 03:16 Cloudy 74 23.3 69 20.6 85 85 SSE 6 9 30.03 1017 10 16 0.00 0.00
3:35 am 03:35 Cloudy 74 23.3 69 20.6 85 85 SE 6 9 30.03 1017 10 16 0.00 0.00
3:53 am 03:53 Cloudy 74 23.3 69 20.6 85 85 Calm 30.02 1017 10 16 0.00 0.00
4:53 am 04:53 Cloudy 75 23.9 68 20 79 79 NE 3 6 30.03 1017 10 16 0.00 0.00
5:22 am 05:22 Cloudy 74 23.3 68 20 82 82 NE 6 9 30.03 1017 10 16 0.00 0.00
5:53 am 05:53 Mostly Cloudy with Light Rain 73 22.8 69 20.6 87 87 NE 10 17 30.03 1017 10 16 0.01 0.13
6:16 am 06:16 Cloudy with Light Rain 73 22.8 68 20 84 84 NNE 6 9 30.03 1017 10 16 0.01 0.13
6:28 am 06:28 Cloudy with Light Rain 74 23.3 68 20 82 82 Calm 30.03 1017 10 16 0.01 0.13
6:53 am 06:53 Mostly Cloudy 75 23.9 68 20 79 79 W 5 7 30.04 1017 10 16 0.01 0.13
7:53 am 07:53 Partly Cloudy 77 25 67 19.4 71 71 Calm 30.04 1017 10 16 0.00 0.00
8:53 am 08:53 Partly Cloudy 80 26.7 67 19.4 64 64 SW 8 13 30.04 1017 10 16 0.00 0.00
9:53 am 09:53 Partly Cloudy 80 26.7 68 20 67 67 WSW 9 15 30.05 1018 10 16 0.00 0.00
10:53 am 10:53 Partly Cloudy 80 26.7 68 20 67 67 WSW 10 17 30.04 1017 10 16 0.00 0.00
11:53 am 11:53 Partly Cloudy 81 27.2 68 20 65 65 W 10 17 30.05 1018 10 16 0.00 0.00
12:53 pm 12:53 Cloudy 81 27.2 69 20.6 67 67 WSW 9 15 30.04 1017 10 16 0.00 0.00
1:53 pm 13:53 Partly Cloudy 82 27.8 69 20.6 65 65 SW 9 15 30.04 1017 10 16 0.00 0.00
2:53 pm 14:53 Partly Cloudy 82 27.8 68 20 63 63 WSW 9 15 30.02 1017 10 16 0.00 0.00
3:53 pm 15:53 Partly Cloudy 82 27.8 67 19.4 60 60 SSW 9 15 30.01 1016 10 16 0.00 0.00
4:53 pm 16:53 Partly Cloudy 80 26.7 69 20.6 69 69 SW 10 17 30.01 1016 10 16 0.00 0.00
5:53 pm 17:53 Mostly Cloudy 79 26.1 69 20.6 72 72 SSW 9 15 30.02 1017 10 16 0.00 0.00
6:53 pm 18:53 Mostly Cloudy 78 25.6 69 20.6 74 74 S 9 15 30.03 1017 10 16 0.00 0.00
7:34 pm 19:34 Cloudy 78 25.6 69 20.6 74 74 SE 10 17 30.05 1017 10 16 0.00 0.00
7:53 pm 19:53 Cloudy with Rain 75 23.9 71 21.7 88 88 S 5 7 30.05 1018 5 8 0.15 3.81
8:36 pm 20:36 Cloudy with Light Rain 74 23.3 71 21.7 91 91 SSE 6 9 30.05 1018 10 16 0.06 1.52
8:53 pm 20:53 Cloudy 75 23.9 71 21.7 88 88 SE 10 17 30.06 1018 10 16 0.06 1.52
9:53 pm 21:53 Cloudy 73 22.8 70 21.1 90 90 S 12 19 30.06 1018 10 16 0.01 0.13
10:53 pm 22:53 Cloudy with Light Rain 73 22.8 71 21.7 94 94 SE 8 13 30.06 1018 7 11 0.01 0.13
11:19 pm 23:19 Cloudy 73 22.8 71 21.7 94 94 Calm 30.07 1018 9 14 0.01 0.13
11:43 pm 23:43 Cloudy 74 23.3 71 21.7 91 91 S 7 11 30.05 1018 10 16 0.01 0.13
11:53 pm 23:53 Cloudy 74 23.3 71 21.7 91 91 SSE 6 9 30.05 1018 10 16 0.01 0.13

Powered by Vaisala Xweather